IRIDIUM 175 (43928 NORAD) Tracking and Keplerian Element Data

This shows tracking and keplerian element data for the satellite.

Feedback or suggestion? Click here.




ElementValue
Catalog43928
NameIRIDIUM 175
Epoch Orbit87
Epoch Day17.65193763
Epoch Year2019
RAAN45.047
Inclination86.6781
Eccentricity0.0011408
Argument of Perigee190.2122
Mean Anonmoly309.2389
Mean Motion14.83309554
Decay Rate-1.34E-06
L11 43928U 19002G 19017.65193763 -.00000134 00000-0 -19764-4 0 9997
L22 43928 86.6781 45.0470 0011408 190.2122 309.2389 14.83309554 876

Live tracking and technical data element details for IRIDIUM 175 (NORAD 43928). IRIDIUM 175 can be tracked NOW for your location showing map with azimuth and elevation plus other details from your city location.

Track the satellite on the map from your city or location and see movement details for azimuth, elevation, latitude, longitude, range, height, and movement on the map or in text.







IsCatalogInMostPopularTable: catalog: 43928, numindb: 2
Update: records affected: 1



GetName: 43928 IRIDIUM 175

Hit Count: updated at: Fri, 18 Jan 2019 22:08:05 GMT